• In Hungary
  • List of Countries
  • For 7 days
  • Water Temperature
  • Satellite Maps
  • Weather Map
  • News
  • Weather Widgets
  • user-avatar
    Login

    Hourly Weather Puhtina Gora

    Today, 22 May, Tuesday

    Time Temperature Precipitation Wind Pressure Humidity
    00:00 +11°C° 0 mm 1 mps 751 mmHg 77%
    01:00 +10°C° 0 mm 1 mps 751 mmHg 79%
    02:00 +10°C° 0 mm 1 mps 751 mmHg 81%
    03:00 +10°C° 0 mm 1 mps 751 mmHg 80%
    04:00 +10°C° 0 mm 1 mps 751 mmHg 79%
    05:00 +11°C° 0 mm 1 mps 751 mmHg 77%
    06:00 +13°C° 0 mm 2 mps 751 mmHg 68%
    07:00 +15°C° 0 mm 2 mps 751 mmHg 59%
    08:00 +17°C° 0 mm 3 mps 750 mmHg 50%
    09:00 +18°C° 0 mm 3 mps 750 mmHg 47%
    10:00 +18°C° 0 mm 3 mps 750 mmHg 44%
    11:00 +19°C° 0 mm 3 mps 749 mmHg 41%
    12:00 +18°C° 0 mm 3 mps 749 mmHg 45%
    13:00 +18°C° 0 mm 3 mps 749 mmHg 49%
    14:00 +17°C° 0 mm 3 mps 748 mmHg 53%
    15:00 +17°C° 0.1 mm 2 mps 748 mmHg 59%
    16:00 +16°C° 0.1 mm 2 mps 747 mmHg 65%
    17:00 +15°C° 0.1 mm 1 mps 747 mmHg 72%
    18:00 +15°C° 0.1 mm 1 mps 747 mmHg 77%
    19:00 +14°C° 0.1 mm 1 mps 747 mmHg 83%
    20:00 +13°C° 0.1 mm 1 mps 746 mmHg 88%
    21:00 +13°C° 0 mm 1 mps 746 mmHg 91%
    22:00 +12°C° 0 mm 2 mps 746 mmHg 93%
    23:00 +12°C° 0 mm 2 mps 746 mmHg 96%

    Tomorrow, 23 May, Wednesday

    Time Temperature Precipitation Wind Pressure Humidity
    00:00 +12°C° 0 mm 2 mps 746 mmHg 96%
    01:00 +11°C° 0 mm 1 mps 746 mmHg 97%
    02:00 +11°C° 0 mm 1 mps 746 mmHg 97%
    03:00 +11°C° 0 mm 1 mps 746 mmHg 96%
    04:00 +12°C° 0 mm 1 mps 746 mmHg 96%
    05:00 +12°C° 0 mm 1 mps 746 mmHg 95%
    06:00 +13°C° 0 mm 2 mps 746 mmHg 89%
    07:00 +15°C° 0 mm 2 mps 746 mmHg 84%
    08:00 +16°C° 0 mm 2 mps 746 mmHg 78%
    09:00 +17°C° 0 mm 2 mps 746 mmHg 73%
    10:00 +18°C° 0 mm 2 mps 746 mmHg 68%
    11:00 +19°C° 0 mm 2 mps 746 mmHg 63%
    12:00 +20°C° 0.1 mm 2 mps 746 mmHg 59%
    13:00 +21°C° 0.1 mm 2 mps 745 mmHg 55%
    14:00 +23°C° 0.1 mm 2 mps 745 mmHg 51%
    15:00 +21°C° 0.3 mm 2 mps 745 mmHg 56%
    16:00 +21°C° 0.3 mm 2 mps 745 mmHg 61%
    17:00 +21°C° 0.3 mm 1 mps 745 mmHg 66%
    18:00 +19°C° 0.4 mm 1 mps 745 mmHg 73%
    19:00 +18°C° 0.4 mm 1 mps 745 mmHg 80%
    20:00 +15°C° 0.4 mm 1 mps 745 mmHg 88%
    21:00 +14°C° 0.1 mm 1 mps 745 mmHg 89%
    22:00 +14°C° 0.1 mm 1 mps 745 mmHg 91%
    23:00 +13°C° 0.1 mm 1 mps 745 mmHg 92%

    Day after tomorrow, 24 May, Thursday

    Time Temperature Precipitation Wind Pressure Humidity
    00:00 +13°C° 0.3 mm 1 mps 745 mmHg 93%
    01:00 +13°C° 0.3 mm 1 mps 745 mmHg 94%
    02:00 +13°C° 0.3 mm 1 mps 745 mmHg 95%
    03:00 +13°C° 0.3 mm 1 mps 745 mmHg 94%
    04:00 +13°C° 0.3 mm 1 mps 745 mmHg 94%
    05:00 +13°C° 0.3 mm 2 mps 745 mmHg 94%
    06:00 +15°C° 0.1 mm 2 mps 746 mmHg 86%
    07:00 +16°C° 0.1 mm 2 mps 746 mmHg 79%
    08:00 +18°C° 0.1 mm 2 mps 746 mmHg 72%
    09:00 +19°C° 0.1 mm 3 mps 746 mmHg 64%
    10:00 +21°C° 0.1 mm 3 mps 747 mmHg 57%
    11:00 +22°C° 0.1 mm 4 mps 747 mmHg 50%
    12:00 +21°C° 0.4 mm 4 mps 747 mmHg 53%
    13:00 +21°C° 0.4 mm 4 mps 747 mmHg 57%
    14:00 +20°C° 0.4 mm 4 mps 747 mmHg 61%
    15:00 +20°C° 0.1 mm 4 mps 748 mmHg 60%
    16:00 +20°C° 0.1 mm 4 mps 748 mmHg 59%
    17:00 +19°C° 0.1 mm 4 mps 748 mmHg 58%
    18:00 +17°C° 0 mm 4 mps 749 mmHg 61%
    19:00 +16°C° 0 mm 3 mps 749 mmHg 63%
    20:00 +13°C° 0 mm 3 mps 750 mmHg 66%
    21:00 +12°C° 0 mm 3 mps 750 mmHg 66%
    22:00 +10°C° 0 mm 3 mps 751 mmHg 66%
    23:00 +9°C° 0 mm 2 mps 751 mmHg 66%

    25 May, Friday

    Time Temperature Precipitation Wind Pressure Humidity
    00:00 +8°C° 0 mm 2 mps 751 mmHg 66%
    01:00 +7°C° 0 mm 2 mps 752 mmHg 67%
    02:00 +6°C° 0 mm 2 mps 752 mmHg 67%
    03:00 +7°C° 0 mm 2 mps 752 mmHg 65%
    04:00 +7°C° 0 mm 2 mps 753 mmHg 63%
    05:00 +7°C° 0 mm 3 mps 753 mmHg 61%
    06:00 +9°C° 0 mm 3 mps 754 mmHg 56%
    07:00 +11°C° 0 mm 3 mps 754 mmHg 50%
    08:00 +13°C° 0 mm 3 mps 754 mmHg 45%
    09:00 +14°C° 0 mm 3 mps 754 mmHg 42%
    10:00 +16°C° 0 mm 3 mps 754 mmHg 39%
    11:00 +17°C° 0 mm 3 mps 755 mmHg 36%
    12:00 +18°C° 0 mm 3 mps 754 mmHg 35%
    13:00 +19°C° 0 mm 2 mps 754 mmHg 34%
    14:00 +19°C° 0 mm 2 mps 754 mmHg 33%
    15:00 +19°C° 0 mm 2 mps 754 mmHg 35%
    16:00 +19°C° 0 mm 2 mps 754 mmHg 37%
    17:00 +19°C° 0 mm 2 mps 754 mmHg 39%
    18:00 +17°C° 0 mm 2 mps 754 mmHg 47%
    19:00 +15°C° 0 mm 2 mps 754 mmHg 56%
    20:00 +13°C° 0 mm 1 mps 754 mmHg 64%
    21:00 +11°C° 0 mm 1 mps 754 mmHg 67%
    22:00 +10°C° 0 mm 1 mps 754 mmHg 69%
    23:00 +9°C° 0 mm 1 mps 755 mmHg 72%

    26 May, Saturday

    Time Temperature Precipitation Wind Pressure Humidity
    00:00 +9°C° 0 mm 1 mps 755 mmHg 72%
    01:00 +8°C° 0 mm 1 mps 755 mmHg 73%
    02:00 +8°C° 0 mm 1 mps 755 mmHg 73%
    03:00 +8°C° 0 mm 1 mps 756 mmHg 71%
    04:00 +9°C° 0 mm 1 mps 756 mmHg 70%
    05:00 +9°C° 0 mm 1 mps 756 mmHg 69%
    06:00 +12°C° 0 mm 1 mps 756 mmHg 62%
    07:00 +14°C° 0 mm 1 mps 756 mmHg 55%
    08:00 +16°C° 0 mm 2 mps 756 mmHg 48%
    09:00 +17°C° 0 mm 2 mps 756 mmHg 44%
    10:00 +19°C° 0 mm 2 mps 756 mmHg 40%
    11:00 +20°C° 0 mm 2 mps 756 mmHg 36%
    12:00 +21°C° 0 mm 2 mps 755 mmHg 35%
    13:00 +23°C° 0 mm 2 mps 755 mmHg 34%
    14:00 +23°C° 0 mm 2 mps 755 mmHg 34%
    15:00 +23°C° 0 mm 2 mps 754 mmHg 36%
    16:00 +23°C° 0 mm 2 mps 754 mmHg 38%
    17:00 +21°C° 0 mm 2 mps 753 mmHg 41%
    18:00 +19°C° 0 mm 2 mps 753 mmHg 50%
    19:00 +17°C° 0 mm 2 mps 753 mmHg 59%
    20:00 +15°C° 0 mm 2 mps 753 mmHg 68%
    21:00 +14°C° 0 mm 2 mps 753 mmHg 71%
    22:00 +13°C° 0 mm 2 mps 753 mmHg 73%
    23:00 +12°C° 0 mm 2 mps 753 mmHg 75%

    27 May, Sunday

    Time Temperature Precipitation Wind Pressure Humidity
    00:00 +12°C° 0 mm 2 mps 754 mmHg 76%
    01:00 +10°C° 0 mm 2 mps 754 mmHg 77%
    02:00 +10°C° 0 mm 2 mps 754 mmHg 78%
    03:00 +10°C° 0 mm 2 mps 754 mmHg 77%
    04:00 +12°C° 0 mm 2 mps 753 mmHg 77%
    05:00 +12°C° 0 mm 1 mps 753 mmHg 77%
    06:00 +14°C° 0 mm 1 mps 753 mmHg 70%
    07:00 +18°C° 0 mm 1 mps 753 mmHg 63%
    08:00 +20°C° 0 mm 1 mps 753 mmHg 56%
    09:00 +21°C° 0 mm 1 mps 753 mmHg 51%
    10:00 +23°C° 0 mm 1 mps 753 mmHg 45%
    11:00 +25°C° 0 mm 1 mps 753 mmHg 40%
    12:00 +25°C° 0 mm 1 mps 753 mmHg 39%
    13:00 +25°C° 0 mm 2 mps 753 mmHg 37%
    14:00 +26°C° 0 mm 2 mps 752 mmHg 36%
    15:00 +26°C° 0 mm 2 mps 752 mmHg 38%
    16:00 +25°C° 0 mm 2 mps 752 mmHg 40%
    17:00 +25°C° 0 mm 2 mps 751 mmHg 42%
    18:00 +23°C° 0 mm 1 mps 751 mmHg 51%
    19:00 +21°C° 0 mm 1 mps 751 mmHg 60%
    20:00 +18°C° 0 mm 1 mps 751 mmHg 68%
    21:00 +16°C° 0 mm 1 mps 752 mmHg 70%
    22:00 +15°C° 0 mm 1 mps 752 mmHg 73%
    23:00 +14°C° 0 mm 1 mps 752 mmHg 75%
    Show more